Location: Home
(42.5358°N, 72.7383°W)
Time: 13:33:41
(UTC-05:00)

Envisat - Visible Passes

Search period start: 04 December 2022 00:00
Search period end: 14 December 2022 00:00
Orbit: 763 x 765 km, 98.2° (Epoch: 03 December)

Date Brightness Start Highest point End Pass type
(mag) Time Alt. Az. Time Alt. Az. Time Alt. Az.
04 Dec 5.1 05:26:19 10° NNW 05:26:29 11° NNW 05:26:29 11° NNW visible
04 Dec 6.1 16:43:39 10° WSW 16:45:53 13° W 16:48:07 10° WNW visible
05 Dec 5.2 04:48:31 10° N 04:48:54 12° N 04:48:54 12° N visible
06 Dec 5.5 04:11:17 10° NNE 04:11:19 10° NNE 04:11:19 10° NNE visible
12 Dec 6.1 16:45:03 10° WSW 16:47:01 12° W 16:49:00 10° WNW visible
